{"data":{"norad_id":64557,"epoch":"2026-05-24T19:23:27.496032Z","epoch_age_seconds":94837,"freshness":"FRESH","line1":"1 64557U 25135AF  26144.80795713  .00003089  00000+0  14547-3 0  9993","line2":"2 64557  97.4691 260.3308 0002975  88.3915 271.7660 15.20272349 51318","mean_motion":15.20272349,"eccentricity":0.0002975,"inclination_deg":97.4691,"raan_deg":260.3308,"arg_perigee_deg":88.3915,"mean_anomaly_deg":271.766,"bstar":0.00014547,"rev_number":5131,"period_min":94.719870485522,"perigee_km":502.97069757737,"apogee_km":507.06617506198,"semimajor_km":6883.1554363197,"source":"CELESTRAK","updated_at":"2026-05-25T13:38:04.616192Z"}}